Location: Brookfield Center
(41.2406°N, 80.5579°W)
Time: 06:28:54
(UTC+00:00)

Ariane Rocket - Pass Details

Date: 18 January 2020
Orbit: 761 x 769 km, 98.7° (Epoch: 23 February)

Event Time Altitude Azimuth Distance (km) Brightness Sun altitude
Rises 00:46:51 0° 171° (S) 3,208 6.2 -27.2°
Enters shadow 00:47:56 - 171° (S) 2,772 5.8 -27.4°
Exits shadow 00:53:41 66° 217° (SW) 834 3.2 -28.5°
Maximum altitude 00:54:10 71° 257° (WSW) 808 3.1 -28.6°
Drops below altitude 10° 00:59:15 10° 342° (NNW) 2,310 5.6 -29.6°
Sets 01:01:35 0° 345° (NNW) 3,241 6.4 -30.0°
